Houghton, MI

10:17 PM EDT on October 19, 2017 (GMT -0400)
Houghton County Memorial

Weather History for KCMX - October, 2014

Change the Weather History Date:

Saturday, October 4, 2014

  Actual Average Record
Temperature  
Mean Temperature 40 °F -  
Max Temperature 42 °F 55 °F 75 °F (2011)
Min Temperature 37 °F 40 °F 26 °F (1965)
Degree Days  
Heating Degree Days 26    
Moisture  
Dew Point 35 °F    
Average Humidity 86    
Maximum Humidity 93    
Minimum Humidity 73    
Precipitation  
Precipitation 0.38 in - - ()
Sea Level Pressure  
Sea Level Pressure 29.50 in    
Wind  
Wind Speed 11 mph (NW)    
Max Wind Speed 20 mph    
Max Gust Speed 29 mph    
Visibility 8 miles    
Events Rain    
Averages and records for this station are not official NWS values.
T = Trace of Precipitation, MM = Missing Value Source: NWS Daily Summary

Daily Weather History Graph

Daily Weather History Graph

Search for Another Location

Airport or City:

Trip Planner

Search our weather history database for the weather conditions in past years. The results will help you decide how hot, cold, wet, or windy it might be!

Date:

Astronomy

Oct. 04, 2014 Rise Set
Actual Time 7:56 AM EDT 7:27 PM EDT
Civil Twilight 7:26 AM EDT 7:57 PM EDT
Nautical Twilight 6:51 AM EDT 8:33 PM EDT
Astronomical Twilight 6:15 AM EDT 9:09 PM EDT
Moon 5:18 PM EDT (10/4) 3:08 AM EDT (10/4)
Length of Visible Light 12h 31m
Length of Day
11h 30m
Waxing Gibbous, 81% of the Moon is Illuminated
Oct 4
Waxing Gibbous
Oct 8
Full
Oct 15
Last Quarter
Oct 23
New
Oct 30
First Quarter

Hourly Weather History & Observations

Time (EDT) Temp. Windchill Dew Point Humidity Pressure Visibility Wind Dir Wind Speed Gust Speed Precip Events Conditions
12:53 AM 39.9 °F 32.9 °F 37.9 °F 93% 29.47 in 5.0 mi West 11.5 mph - 0.02 in Rain Light Rain
1:31 AM 41.0 °F 35.8 °F 37.9 °F 89% 29.45 in 6.0 mi NNE 8.1 mph - 0.01 in Rain Light Rain
1:53 AM 42.8 °F 38.0 °F 39.2 °F 87% 29.45 in 3.0 mi NNW 8.1 mph - N/A Rain Light Rain
2:03 AM 42.1 °F 36.1 °F 37.9 °F 85% 29.45 in 5.0 mi North 10.4 mph - 0.00 in   Overcast
2:21 AM 41.0 °F 35.2 °F 37.9 °F 89% 29.45 in 10.0 mi North 9.2 mph - 0.00 in   Overcast
2:45 AM 41.0 °F 34.3 °F 37.0 °F 86% 29.45 in 4.0 mi North 11.5 mph 21.9 mph 0.00 in Rain Light Rain
2:53 AM 41.0 °F 35.8 °F 37.0 °F 86% 29.47 in 7.0 mi North 8.1 mph - 0.00 in Rain Light Rain
3:53 AM 41.0 °F 36.4 °F 37.0 °F 86% 29.47 in 10.0 mi NNW 6.9 mph - 0.00 in   Overcast
4:53 AM 39.9 °F 36.7 °F 36.0 °F 86% 29.48 in 10.0 mi North 4.6 mph - 0.00 in   Overcast
5:53 AM 39.9 °F 33.9 °F 36.0 °F 86% 29.50 in 7.0 mi NNW 9.2 mph - 0.02 in Rain Light Rain
6:03 AM 39.9 °F 34.5 °F 36.0 °F 86% 29.48 in 10.0 mi NNW 8.1 mph - 0.00 in Rain Light Rain
6:13 AM 39.9 °F 35.1 °F 36.0 °F 86% 29.48 in 10.0 mi NNW 6.9 mph - 0.00 in Rain Light Rain
6:25 AM 39.9 °F 34.5 °F 36.0 °F 86% 29.47 in 10.0 mi North 8.1 mph - 0.00 in Rain Light Rain
6:53 AM 39.9 °F 35.8 °F 36.0 °F 86% 29.50 in 10.0 mi North 5.8 mph - 0.01 in Rain Light Rain
7:50 AM 39.2 °F 35.0 °F 37.4 °F 93% 29.49 in 7.0 mi North 5.8 mph - 0.03 in Rain Light Rain
7:53 AM 39.9 °F 36.7 °F 37.0 °F 89% 29.51 in 8.0 mi North 4.6 mph - 0.03 in Rain Light Rain
8:21 AM 39.9 °F 36.7 °F 37.0 °F 89% 29.49 in 10.0 mi North 4.6 mph - 0.01 in Rain Light Rain
8:36 AM 39.9 °F 35.1 °F 36.0 °F 86% 29.49 in 10.0 mi NNW 6.9 mph - 0.01 in Rain Light Rain
8:53 AM 39.9 °F 34.5 °F 36.0 °F 86% 29.52 in 7.0 mi North 8.1 mph - 0.02 in Rain Light Rain
9:03 AM 39.9 °F 35.1 °F 36.0 °F 86% 29.49 in 3.0 mi North 6.9 mph - 0.00 in Rain Light Rain
9:11 AM 39.0 °F 34.0 °F 36.0 °F 89% 29.49 in 2.5 mi NNW 6.9 mph - 0.00 in Rain Light Rain
9:18 AM 39.9 °F 34.5 °F 36.0 °F 86% 29.49 in 5.0 mi NW 8.1 mph - 0.00 in Rain Light Rain
9:26 AM 39.9 °F 33.9 °F 36.0 °F 86% 29.49 in 6.0 mi NW 9.2 mph - 0.00 in   Overcast
9:53 AM 39.9 °F 32.9 °F 36.0 °F 86% 29.52 in 8.0 mi NNW 11.5 mph - 0.01 in Rain Light Rain
10:01 AM 39.9 °F 33.4 °F 36.0 °F 86% 29.49 in 6.0 mi NNW 10.4 mph - 0.00 in Rain Light Rain
10:48 AM 37.4 °F 30.3 °F 35.6 °F 93% 29.50 in 3.0 mi NNW 10.4 mph - 0.04 in Rain Light Rain
10:53 AM 37.9 °F 31.5 °F 35.1 °F 89% 29.52 in 7.0 mi North 9.2 mph 20.7 mph 0.04 in Rain Light Rain
11:05 AM 39.0 °F 31.4 °F 35.1 °F 86% 29.50 in 10.0 mi NNW 12.7 mph - 0.00 in Rain Light Rain
11:34 AM 39.0 °F 30.6 °F 35.1 °F 86% 29.50 in 9.0 mi NW 15.0 mph - 0.01 in Rain Light Rain
11:39 AM 39.0 °F 29.9 °F 35.1 °F 86% 29.50 in 6.0 mi NNW 17.3 mph 23.0 mph 0.02 in Rain Light Rain
11:51 AM 37.4 °F 28.2 °F 33.8 °F 87% 29.50 in 5.0 mi NW 16.1 mph 21.9 mph 0.03 in Rain Light Rain
11:52 AM 37.9 °F 29.2 °F 34.0 °F 86% 29.53 in 5.0 mi NW 15.0 mph 21.9 mph 0.03 in Rain Light Rain
12:11 PM 37.9 °F 29.2 °F 35.1 °F 89% 29.50 in 6.0 mi NW 15.0 mph 21.9 mph 0.02 in Rain Light Rain
12:18 PM 37.9 °F 28.2 °F 35.1 °F 89% 29.50 in 7.0 mi NW 18.4 mph 25.3 mph 0.02 in Rain Light Rain
12:26 PM 37.9 °F 28.5 °F 34.0 °F 86% 29.51 in 6.0 mi NW 17.3 mph 25.3 mph 0.03 in Rain Light Rain
12:34 PM 37.9 °F 29.2 °F 34.0 °F 86% 29.51 in 8.0 mi NW 15.0 mph - 0.03 in Rain Light Rain
12:53 PM 37.9 °F 28.2 °F 35.1 °F 89% 29.53 in 7.0 mi NW 18.4 mph - 0.04 in Rain Light Rain
1:05 PM 37.9 °F 27.9 °F 35.1 °F 89% 29.51 in 8.0 mi NW 19.6 mph 24.2 mph 0.00 in Rain Light Rain
1:15 PM 39.0 °F 29.3 °F 35.1 °F 86% 29.50 in 9.0 mi NW 19.6 mph 27.6 mph 0.00 in Rain Light Rain
1:49 PM 39.2 °F 30.2 °F 33.8 °F 81% 29.50 in 10.0 mi NW 17.3 mph 27.6 mph 0.01 in Rain Light Rain
1:53 PM 39.0 °F 29.3 °F 34.0 °F 82% 29.53 in 8.0 mi NW 19.6 mph 27.6 mph 0.01 in Rain Light Rain
2:53 PM 37.0 °F 27.7 °F 33.1 °F 86% 29.53 in 9.0 mi NW 16.1 mph 25.3 mph 0.02 in Rain Light Rain
3:53 PM 37.0 °F 28.9 °F 34.0 °F 89% 29.54 in 6.0 mi WNW 12.7 mph - 0.03 in Rain Light Rain
4:53 PM 37.0 °F 30.4 °F 34.0 °F 89% 29.53 in 10.0 mi West 9.2 mph - 0.05 in Rain Light Rain
5:27 PM 37.9 °F 30.9 °F 35.1 °F 89% 29.50 in 10.0 mi West 10.4 mph - 0.01 in Rain Light Rain
5:53 PM 39.0 °F 31.4 °F 35.1 °F 86% 29.52 in 10.0 mi WNW 12.7 mph - 0.02 in Rain Light Rain
6:33 PM 39.0 °F 29.6 °F 33.1 °F 79% 29.50 in 10.0 mi WNW 18.4 mph 24.2 mph 0.01 in Rain Light Rain
6:53 PM 39.0 °F 30.6 °F 34.0 °F 82% 29.52 in 10.0 mi WNW 15.0 mph - 0.01 in Rain Light Rain
7:53 PM 39.9 °F 32.1 °F 35.1 °F 83% 29.52 in 10.0 mi WNW 13.8 mph - 0.00 in   Overcast
8:50 PM 39.2 °F 30.5 °F 35.6 °F 87% 29.49 in 7.0 mi WNW 16.1 mph 25.3 mph 0.02 in Rain Light Rain
8:53 PM 39.9 °F 31.8 °F 35.1 °F 83% 29.51 in 9.0 mi WNW 15.0 mph 24.2 mph 0.02 in Rain Light Rain
9:18 PM 41.0 °F 32.2 °F 36.0 °F 82% 29.48 in 10.0 mi WNW 18.4 mph 26.5 mph 0.00 in   Overcast
9:53 PM 39.9 °F 31.1 °F 34.0 °F 79% 29.51 in 10.0 mi WNW 17.3 mph - 0.00 in   Overcast
10:53 PM 41.0 °F 31.9 °F 33.1 °F 73% 29.49 in 10.0 mi WNW 19.6 mph 28.8 mph N/A   Overcast
11:53 PM 39.9 °F 32.1 °F 32.0 °F 73% 29.50 in 10.0 mi NW 13.8 mph - N/A   Clear